Location: Newark
(34.6283°N, 36.0776°E)
Time: 14:22:13
(UTC+00:00)

Tiros 1 despin weight - Pass Details

Date: 28 September 2019
Orbit: 594 x 643 km, 48.2° (Epoch: 14 October)

Event Time Altitude Azimuth Distance (km) Brightness Sun altitude
Rises 14:38:39 0° 288° (WNW) 2,843 ? 8.6°
Reaches altitude 10° 14:41:53 10° 263° (W) 1,928 ? 7.9°
Maximum altitude 14:44:13 14° 231° (SW) 1,661 ? 7.5°
Drops below altitude 10° 14:46:34 10° 198° (SSW) 1,914 ? 7.0°
Sets 14:49:46 0° 174° (S) 2,808 ? 6.3°
